Погода Туапсе

Хотите узнать прогноз погоды Туапсе? Тогда Вам сюда: Погода Туапсе

Поиск расширенной информации на нашем сайте:

Полезная информация:

Новости сайта



02.01.2020
Опубликован Долгосрочный прогноз погоды по городам России и ближнего зарубежья на январь 2020 года.
Карты: Прогноз на январь и февраль 2020 года, Сравнение прогнозируемой аномалии приземной температуры воздуха на январь 2020 года по разным моделям.




Погода Туапсе - сегодня

Время (UTC), дата Ветер
(°,м/с) 
Видим.   Явления Облачность Т
(°С)
Тd
(°С)
f(%) Тe
(°С)
Pmin
(гПа)
dP
(гПа)
Po
(мм)
O2
(г/м3)
Тmin Tmax R s Состояние
почвы
21 22.09.20 060 (СВ) 10 км    ясно 
+18.9 +9.9 56 +21  1017.5  0.1  758  284           
00 23.09.20 050 (СВ) 10 км    ясно 
+17.7 +10.5 63 +21  1016.9  -0.7  757  285           
03 23.09.20 050 (СВ) 20000 м    ясно 
+16.9 +11 68 +20  1016.5  -0.4  757  285  +16.9        сухая 
06 23.09.20 060 (СВ) 20000 м    ясно 
+22.6 +12.1 51 +26  1016.1  -0.2  757  279  +16.8         
09 23.09.20 230 (ЮЗ) 20000 м    ясно 
+28 +15.6 47 +37  1015.6  -0.4  756  273           
12 23.09.20 250 (З) 20000 м    1/1 1000 м 
[Cu med, cong]
+28.1 +17.2 52 +41  1014.3  -1.3  755  272           
15 23.09.20 тихо ()   20000 м    1/0 средняя 
[Ac trans]
+24.3 +16.9 63 +36  1013.9  -0.5  755  276    +30.2       
18 23.09.20 тихо ()   10 км    ясно 
+21.8 +15.7 68 +32  1013.9  755  278           
21 23.09.20 050 (СВ) 10 км    ясно 
+18.8 +13.3 70 +26  1013.8  -0.2  755  282           
00 24.09.20 050 (СВ) 10 км    3/0 верхняя 
[Ci sp]
+17.5 +13.1 75 +23  1014.3  0.5  755  283           
03 24.09.20 030 (СВ) 20000 м    8/4 1000 м верхняя 
[Cu med, cong|Ci sp]
+17.3 +13.3 77 +25  1014.5  0.1  755  284  +17.2        сухая 
06 24.09.20 050 (СВ) 20000 м    ясно 
+22.7 +14.8 61 +31  1014.3  755  278  +17         
09 24.09.20 230 (ЮЗ) 20000 м    1/1 1000 м 
[Cu med, cong]
+27.9 +18 55 +42  1014.4  0.2  756  272           
12 24.09.20 230 (ЮЗ) 20000 м    1/1 1000 м 
[Cu med, cong]
+29.8 +17.9 49 +44  1013.2  -1.1  755  270           
15 24.09.20 330 (СЗ) 20000 м    3/3 1000 м 
[Cu Sc]
+24 +17.9 69 +38  1013.1  -0.3  755  275    +29.9       
18 24.09.20 тихо ()   10 км    3/3 1000 м 
[Sc]
+21.2 +16.7 76 +33  1012.6  -0.5  754  278           
21 24.09.20 040 (СВ) 10 км    3/3 1000 м 
[Sc]
+20 +14.1 69 +27  1012.9  0.2  754  280           
00 25.09.20 060 (СВ) 10 км    ясно 
+18.9 +14.1 74 +27  1012.6  -0.3  754  281           
03 25.09.20 050 (СВ) 10 км    ясно 
+17.9 +13.4 75 +25  1012.1  -0.5  754  282  +17.8        сухая 
06 25.09.20 060 (СВ) 20000 м    6/0 верхняя 
[Ci sp]
+23.5 +14.3 56 +31  1011.7  -0.3  753  277  +17.7         
09 25.09.20 230 (ЮЗ) 20000 м    3/0 верхняя 
[Ci sp]
+27.5 +18.5 58 +43  1011.5  -0.1  753  272           
12 25.09.20 230 (ЮЗ) 20000 м    3/1 1000 м верхняя 
[Cu med, cong|Ci fib]
+31 +17 43 +43  1009.9  -1.5  752  269           
15 25.09.20 280 (З) 20000 м    10/3 1000 м верхняя 
[Cu Sc|Ci]
+24.8 +19.3 72 +42  1009.3  -0.7  752  273    +31.1       
18 25.09.20 тихо ()   10 км    10/8 1000 м верхняя 
[Sc|Ci sp]
+25.2 +10.4 39 +27  1007.8  -1.5  751  275           
21 25.09.20 050 (СВ) 10 км    8/4 1000 м верхняя 
[Sc|Ci sp]
+23.6 +10.6 44 +26  1008.2  0.3  751  277           
Время (UTC), дата Ветер
(°,м/с) 
Видим.   Явления Облачность Т
(°С)
Тd
(°С)
f(%) Тe
(°С)
Pmin
(гПа)
dP
(гПа)
Po
(мм)
O2
(г/м3)
Тmin Tmax R s Состояние
почвы

Для получения пояснительной информации подведите курсор к названию столбца.

ПОГОДА Туапсе - архив

Всё, что Вы хотите узнать о погоде Туапсе - удобно и подробно!

Выберите нужную дату (начиная с 1 января 2019* года) и нажмите кнопку "Найти".
Будут отображены архивные сводки погоды по пункту Туапсе, начиная с указанной даты.


Отображать данные в формате CSV (для использования в таблицах Excel)


Внимание! Наш архив погоды предназначен исключительно для личного некоммерческого использования в познавательных целях. Если Вам необходимы официальные справки о состоянии погоды (для производственных, юридических, коммерческих и т.п. целей), обращайтесь в органы Росгидромета.

*Примечание: данная дата относится к архиву по метеостанциям СССР (Россия, СНГ, Балтия).
Архив по метеостанциям Зарубежной Европы и Азии (кроме Китая) хранится 10 дней, по другим регионам земного шара (Китай, Африка, Америка, Австралия, Океания) - 1 день.

Туапсе - район местоположения метеостанции


Название, широта, долгота, высота метеостанции:
Туапсе 44.1°ш. 39.1°д. 61 м над ур. моря [Российская Федерация]

Дополнительная информация

В oтличие oт бoльшинства пoгoдных сайтoв мы публикуем пoдрoбную метеoинфoрмацию в детальнoм прoфессиoнальнoм фoрмате.

Характеристики температуры и влажнoсти вoздуха измеряются на высoте 2 м в тени вдали oт зданий и деревьев.
Скoрoсть ветра измеряется на высoте 10 м (на урoвне рoста челoвека скoрoсть ветра ниже в 1.5-2 раза). Если метеoстанция нахoдится в гoрoде или в лесу, тo скoрoсть ветра занижена на 2-4 м/с пo сравнению с oткрытым местoм. Скoрoсть ветра над акватoриями крупных рек и oзёр, а также на вершинах хoлмoв на 2-5 м/с выше, чем в oбычных услoвиях.
Атмoсфернoе давление в разных тoчках местнoсти мoжет значительнo oтличаться oт давления на метеoстанции, в зависимoсти oт услoвий рельефа (при пoдъёме на 10 м давление пoнижается примернo на 1 мм рт.ст.).